sat.trackr.live / text

‹ back to catalog

STARLINK-30410

NORAD 57841 · 2023-141B

PAYLOAD ACTIVE UNKNOWN

§ Identity

Operator
Country
US
Launch date
2023-09-12
Launch site
AFWTR
Launch vehicle
Mass (kg)
RCS (m²)

Purposes: comms

External: N2YO · Heavens-Above · Gunter

§ Orbital elements

Epoch: 2026-09-19T21:52:43.015872Z

Period
94.01 min
Inclination
53.1597°
Eccentricity
0.0001294
Mean motion
15.31700520 rev/d
Perigee alt
469.9 km
Apogee alt
471.6 km
Semi-major
6,848.9 km
B*
7.9208e-5
RAAN
100.4136°
Arg perigee
88.9080°
Mean anomaly
271.2070°
Rev number
17,008

§ Raw data

STARLINK-304101 57841U 23141B   26262.91160898  .00002094  00000+0  79208-4 0  99902 57841  53.1597 100.4136 0001294  88.9080 271.2070 15.31700520170080

JSON: /api/v1/satellites/57841 · /tle

For live sub-satellite position, see the globe view (requires WebGL).

§ Visibility from observer

Set your observer location to see the next 7 days of passes ≥ 10°. The values pass through the URL so the page stays shareable.

No JS? Fill the form by hand. The geolocation button needs JavaScript.